Year,Month,Day,Hour,Minute,Value (Times are PST for insolation in W/m^2)
2010,07,02,00,00,0.00
2010,07,02,00,01,0.00
2010,07,02,00,02,0.00
2010,07,02,00,03,0.00
2010,07,02,00,04,0.00
2010,07,02,00,05,0.00
2010,07,02,00,06,0.00
2010,07,02,00,07,0.00
2010,07,02,00,08,0.00
2010,07,02,00,09,0.00
2010,07,02,00,10,0.00
2010,07,02,00,11,0.00
2010,07,02,00,12,0.00
2010,07,02,00,13,0.00
2010,07,02,00,14,0.00
2010,07,02,00,15,0.00
2010,07,02,00,16,0.00
2010,07,02,00,17,0.00
2010,07,02,00,18,0.00
2010,07,02,00,19,0.00
2010,07,02,00,20,0.00
2010,07,02,00,21,0.00
2010,07,02,00,22,0.00
2010,07,02,00,23,0.00
2010,07,02,00,24,0.00
2010,07,02,00,25,0.00
2010,07,02,00,26,0.00
2010,07,02,00,27,0.00
2010,07,02,00,28,0.00
2010,07,02,00,29,0.00
2010,07,02,00,30,0.00
2010,07,02,00,31,0.00
2010,07,02,00,32,0.00
2010,07,02,00,33,0.00
2010,07,02,00,34,0.00
2010,07,02,00,35,0.00
2010,07,02,00,36,0.00
2010,07,02,00,37,0.00
2010,07,02,00,38,0.00
2010,07,02,00,39,0.00
2010,07,02,00,40,0.00
2010,07,02,00,41,0.00
2010,07,02,00,42,0.00
2010,07,02,00,43,0.00
2010,07,02,00,44,0.00
2010,07,02,00,45,0.00
2010,07,02,00,46,0.00
2010,07,02,00,47,0.00
2010,07,02,00,48,0.00
2010,07,02,00,49,0.00
2010,07,02,00,50,0.00
2010,07,02,00,51,0.00
2010,07,02,00,52,0.00
2010,07,02,00,53,0.00
2010,07,02,00,54,0.00
2010,07,02,00,55,0.00
2010,07,02,00,56,0.00
2010,07,02,00,57,0.00
2010,07,02,00,58,0.00
2010,07,02,00,59,0.00
2010,07,02,01,00,0.00
2010,07,02,01,01,0.00
2010,07,02,01,02,0.00
2010,07,02,01,03,0.00
2010,07,02,01,04,0.00
2010,07,02,01,05,0.00
2010,07,02,01,06,0.00
2010,07,02,01,07,0.00
2010,07,02,01,08,0.00
2010,07,02,01,09,0.00
2010,07,02,01,10,0.00
2010,07,02,01,11,0.00
2010,07,02,01,12,0.00
2010,07,02,01,13,0.00
2010,07,02,01,14,0.00
2010,07,02,01,15,0.00
2010,07,02,01,16,0.00
2010,07,02,01,17,0.00
2010,07,02,01,18,0.00
2010,07,02,01,19,0.00
2010,07,02,01,20,0.00
2010,07,02,01,21,0.00
2010,07,02,01,22,0.00
2010,07,02,01,23,0.00
2010,07,02,01,24,0.00
2010,07,02,01,25,0.00
2010,07,02,01,26,0.00
2010,07,02,01,27,0.00
2010,07,02,01,28,0.00
2010,07,02,01,29,0.00
2010,07,02,01,30,0.00
2010,07,02,01,31,0.00
2010,07,02,01,32,0.00
2010,07,02,01,33,0.00
2010,07,02,01,34,0.00
2010,07,02,01,35,0.00
2010,07,02,01,36,0.00
2010,07,02,01,37,0.00
2010,07,02,01,38,0.00
2010,07,02,01,39,0.00
2010,07,02,01,40,0.00
2010,07,02,01,41,0.00
2010,07,02,01,42,0.00
2010,07,02,01,43,0.00
2010,07,02,01,44,0.00
2010,07,02,01,45,0.00
2010,07,02,01,46,0.00
2010,07,02,01,47,0.00
2010,07,02,01,48,0.00
2010,07,02,01,49,0.00
2010,07,02,01,50,0.00
2010,07,02,01,51,0.00
2010,07,02,01,52,0.00
2010,07,02,01,53,0.00
2010,07,02,01,54,0.00
2010,07,02,01,55,0.00
2010,07,02,01,56,0.00
2010,07,02,01,57,0.00
2010,07,02,01,58,0.00
2010,07,02,01,59,0.00
2010,07,02,02,00,0.00
2010,07,02,02,01,0.00
2010,07,02,02,02,0.00
2010,07,02,02,03,0.00
2010,07,02,02,04,0.00
2010,07,02,02,05,0.00
2010,07,02,02,06,0.00
2010,07,02,02,07,0.00
2010,07,02,02,08,0.00
2010,07,02,02,09,0.00
2010,07,02,02,10,0.00
2010,07,02,02,11,0.00
2010,07,02,02,12,0.00
2010,07,02,02,13,0.00
2010,07,02,02,14,0.00
2010,07,02,02,15,0.00
2010,07,02,02,16,0.00
2010,07,02,02,17,0.00
2010,07,02,02,18,0.00
2010,07,02,02,19,0.00
2010,07,02,02,20,0.00
2010,07,02,02,21,0.00
2010,07,02,02,22,0.00
2010,07,02,02,23,0.00
2010,07,02,02,24,0.00
2010,07,02,02,25,0.00
2010,07,02,02,26,0.00
2010,07,02,02,27,0.00
2010,07,02,02,28,0.00
2010,07,02,02,29,0.00
2010,07,02,02,30,0.00
2010,07,02,02,31,0.00
2010,07,02,02,32,0.00
2010,07,02,02,33,0.00
2010,07,02,02,34,0.00
2010,07,02,02,35,0.00
2010,07,02,02,36,0.00
2010,07,02,02,37,0.00
2010,07,02,02,38,0.00
2010,07,02,02,39,0.00
2010,07,02,02,40,0.00
2010,07,02,02,41,0.00
2010,07,02,02,42,0.00
2010,07,02,02,43,0.00
2010,07,02,02,44,0.00
2010,07,02,02,45,0.00
2010,07,02,02,46,0.00
2010,07,02,02,47,0.00
2010,07,02,02,48,0.00
2010,07,02,02,49,0.00
2010,07,02,02,50,0.00
2010,07,02,02,51,0.00
2010,07,02,02,52,0.00
2010,07,02,02,53,0.00
2010,07,02,02,54,0.00
2010,07,02,02,55,0.00
2010,07,02,02,56,0.00
2010,07,02,02,57,0.00
2010,07,02,02,58,0.00
2010,07,02,02,59,0.00
2010,07,02,03,00,0.00
2010,07,02,03,01,0.00
2010,07,02,03,02,0.00
2010,07,02,03,03,0.00
2010,07,02,03,04,0.00
2010,07,02,03,05,0.00
2010,07,02,03,06,0.00
2010,07,02,03,07,0.00
2010,07,02,03,08,0.00
2010,07,02,03,09,0.00
2010,07,02,03,10,0.00
2010,07,02,03,11,0.00
2010,07,02,03,12,0.00
2010,07,02,03,13,0.00
2010,07,02,03,14,0.00
2010,07,02,03,15,0.00
2010,07,02,03,16,0.00
2010,07,02,03,17,0.00
2010,07,02,03,18,0.00
2010,07,02,03,19,0.00
2010,07,02,03,20,0.00
2010,07,02,03,21,0.00
2010,07,02,03,22,0.00
2010,07,02,03,23,0.00
2010,07,02,03,24,0.00
2010,07,02,03,25,0.00
2010,07,02,03,26,0.00
2010,07,02,03,27,0.00
2010,07,02,03,28,0.00
2010,07,02,03,29,0.00
2010,07,02,03,30,0.00
2010,07,02,03,31,0.00
2010,07,02,03,32,0.00
2010,07,02,03,33,0.00
2010,07,02,03,34,0.00
2010,07,02,03,35,0.00
2010,07,02,03,36,0.00
2010,07,02,03,37,0.00
2010,07,02,03,38,0.00
2010,07,02,03,39,0.00
2010,07,02,03,40,0.00
2010,07,02,03,41,0.00
2010,07,02,03,42,0.00
2010,07,02,03,43,0.00
2010,07,02,03,44,0.00
2010,07,02,03,45,0.00
2010,07,02,03,46,0.00
2010,07,02,03,47,0.00
2010,07,02,03,48,0.00
2010,07,02,03,49,0.00
2010,07,02,03,50,0.00
2010,07,02,03,51,0.00
2010,07,02,03,52,0.00
2010,07,02,03,53,0.00
2010,07,02,03,54,0.00
2010,07,02,03,55,0.00
2010,07,02,03,56,0.00
2010,07,02,03,57,0.00
2010,07,02,03,58,0.00
2010,07,02,03,59,0.00
2010,07,02,04,00,0.00
2010,07,02,04,01,0.00
2010,07,02,04,02,0.00
2010,07,02,04,03,0.00
2010,07,02,04,04,0.00
2010,07,02,04,05,0.00
2010,07,02,04,06,0.00
2010,07,02,04,07,0.00
2010,07,02,04,08,0.00
2010,07,02,04,09,0.00
2010,07,02,04,10,0.00
2010,07,02,04,11,0.00
2010,07,02,04,12,0.00
2010,07,02,04,13,0.00
2010,07,02,04,14,0.00
2010,07,02,04,15,0.00
2010,07,02,04,16,0.00
2010,07,02,04,17,0.00
2010,07,02,04,18,0.00
2010,07,02,04,19,0.00
2010,07,02,04,20,0.00
2010,07,02,04,21,0.00
2010,07,02,04,22,0.00
2010,07,02,04,23,0.00
2010,07,02,04,24,0.00
2010,07,02,04,25,0.00
2010,07,02,04,26,0.00
2010,07,02,04,27,0.00
2010,07,02,04,28,0.00
2010,07,02,04,29,0.00
2010,07,02,04,30,0.00
2010,07,02,04,31,0.00
2010,07,02,04,32,0.00
2010,07,02,04,33,0.00
2010,07,02,04,34,0.00
2010,07,02,04,35,0.00
2010,07,02,04,36,0.00
2010,07,02,04,37,0.00
2010,07,02,04,38,0.00
2010,07,02,04,39,0.00
2010,07,02,04,40,0.00
2010,07,02,04,41,0.00
2010,07,02,04,42,0.00
2010,07,02,04,43,0.00
2010,07,02,04,44,0.00
2010,07,02,04,45,0.00
2010,07,02,04,46,0.00
2010,07,02,04,47,0.00
2010,07,02,04,48,0.00
2010,07,02,04,49,0.00
2010,07,02,04,50,0.00
2010,07,02,04,51,0.00
2010,07,02,04,52,0.00
2010,07,02,04,53,0.00
2010,07,02,04,54,0.00
2010,07,02,04,55,0.00
2010,07,02,04,56,0.00
2010,07,02,04,57,0.00
2010,07,02,04,58,0.00
2010,07,02,04,59,0.00
2010,07,02,05,00,0.00
2010,07,02,05,01,0.00
2010,07,02,05,02,0.00
2010,07,02,05,03,0.00
2010,07,02,05,04,0.00
2010,07,02,05,05,0.00
2010,07,02,05,06,0.00
2010,07,02,05,07,0.00
2010,07,02,05,08,0.00
2010,07,02,05,09,0.00
2010,07,02,05,10,0.00
2010,07,02,05,11,0.00
2010,07,02,05,12,0.00
2010,07,02,05,13,0.00
2010,07,02,05,14,0.00
2010,07,02,05,15,0.00
2010,07,02,05,16,0.00
2010,07,02,05,17,0.00
2010,07,02,05,18,0.00
2010,07,02,05,19,0.00
2010,07,02,05,20,0.00
2010,07,02,05,21,0.00
2010,07,02,05,22,2.50
2010,07,02,05,23,5.00
2010,07,02,05,24,5.00
2010,07,02,05,25,5.00
2010,07,02,05,26,5.00
2010,07,02,05,27,5.00
2010,07,02,05,28,5.00
2010,07,02,05,29,5.00
2010,07,02,05,30,6.70
2010,07,02,05,31,7.00
2010,07,02,05,32,7.00
2010,07,02,05,33,7.00
2010,07,02,05,34,7.00
2010,07,02,05,35,7.00
2010,07,02,05,36,8.70
2010,07,02,05,37,9.00
2010,07,02,05,38,9.00
2010,07,02,05,39,9.90
2010,07,02,05,40,11.00
2010,07,02,05,41,11.70
2010,07,02,05,42,13.70
2010,07,02,05,43,14.30
2010,07,02,05,44,16.00
2010,07,02,05,45,16.90
2010,07,02,05,46,18.60
2010,07,02,05,47,19.00
2010,07,02,05,48,20.80
2010,07,02,05,49,21.00
2010,07,02,05,50,21.60
2010,07,02,05,51,23.90
2010,07,02,05,52,25.00
2010,07,02,05,53,25.80
2010,07,02,05,54,26.10
2010,07,02,05,55,28.00
2010,07,02,05,56,28.00
2010,07,02,05,57,29.00
2010,07,02,05,58,30.00
2010,07,02,05,59,31.50
2010,07,02,06,00,32.90
2010,07,02,06,01,33.50
2010,07,02,06,02,35.00
2010,07,02,06,03,36.00
2010,07,02,06,04,38.40
2010,07,02,06,05,39.80
2010,07,02,06,06,42.10
2010,07,02,06,07,44.40
2010,07,02,06,08,46.40
2010,07,02,06,09,48.00
2010,07,02,06,10,47.60
2010,07,02,06,11,46.20
2010,07,02,06,12,46.00
2010,07,02,06,13,45.50
2010,07,02,06,14,44.80
2010,07,02,06,15,46.60
2010,07,02,06,16,46.30
2010,07,02,06,17,44.30
2010,07,02,06,18,44.30
2010,07,02,06,19,46.00
2010,07,02,06,20,46.40
2010,07,02,06,21,47.00
2010,07,02,06,22,48.50
2010,07,02,06,23,49.00
2010,07,02,06,24,51.40
2010,07,02,06,25,53.00
2010,07,02,06,26,53.50
2010,07,02,06,27,55.20
2010,07,02,06,28,57.50
2010,07,02,06,29,59.80
2010,07,02,06,30,62.10
2010,07,02,06,31,63.70
2010,07,02,06,32,66.00
2010,07,02,06,33,67.00
2010,07,02,06,34,68.50
2010,07,02,06,35,70.00
2010,07,02,06,36,72.00
2010,07,02,06,37,72.70
2010,07,02,06,38,74.00
2010,07,02,06,39,75.30
2010,07,02,06,40,76.80
2010,07,02,06,41,77.10
2010,07,02,06,42,79.00
2010,07,02,06,43,79.70
2010,07,02,06,44,81.00
2010,07,02,06,45,81.00
2010,07,02,06,46,81.00
2010,07,02,06,47,82.90
2010,07,02,06,48,83.00
2010,07,02,06,49,83.00
2010,07,02,06,50,83.00
2010,07,02,06,51,83.00
2010,07,02,06,52,81.30
2010,07,02,06,53,82.90
2010,07,02,06,54,83.00
2010,07,02,06,55,83.00
2010,07,02,06,56,83.00
2010,07,02,06,57,83.00
2010,07,02,06,58,83.00
2010,07,02,06,59,84.00
2010,07,02,07,00,84.00
2010,07,02,07,01,84.90
2010,07,02,07,02,87.20
2010,07,02,07,03,89.40
2010,07,02,07,04,90.90
2010,07,02,07,05,93.30
2010,07,02,07,06,95.00
2010,07,02,07,07,96.00
2010,07,02,07,08,97.00
2010,07,02,07,09,97.00
2010,07,02,07,10,97.90
2010,07,02,07,11,98.00
2010,07,02,07,12,98.00
2010,07,02,07,13,98.00
2010,07,02,07,14,98.00
2010,07,02,07,15,98.00
2010,07,02,07,16,98.10
2010,07,02,07,17,100.00
2010,07,02,07,18,100.60
2010,07,02,07,19,103.00
2010,07,02,07,20,104.00
2010,07,02,07,21,104.00
2010,07,02,07,22,104.90
2010,07,02,07,23,105.00
2010,07,02,07,24,105.70
2010,07,02,07,25,108.00
2010,07,02,07,26,109.00
2010,07,02,07,27,110.70
2010,07,02,07,28,111.00
2010,07,02,07,29,111.00
2010,07,02,07,30,111.80
2010,07,02,07,31,113.00
2010,07,02,07,32,113.70
2010,07,02,07,33,114.00
2010,07,02,07,34,114.30
2010,07,02,07,35,116.00
2010,07,02,07,36,116.00
2010,07,02,07,37,117.10
2010,07,02,07,38,119.90
2010,07,02,07,39,122.70
2010,07,02,07,40,127.40
2010,07,02,07,41,130.50
2010,07,02,07,42,132.00
2010,07,02,07,43,129.80
2010,07,02,07,44,128.00
2010,07,02,07,45,133.20
2010,07,02,07,46,134.20
2010,07,02,07,47,135.60
2010,07,02,07,48,137.80
2010,07,02,07,49,140.20
2010,07,02,07,50,143.20
2010,07,02,07,51,145.70
2010,07,02,07,52,148.20
2010,07,02,07,53,149.60
2010,07,02,07,54,151.90
2010,07,02,07,55,154.20
2010,07,02,07,56,155.80
2010,07,02,07,57,157.90
2010,07,02,07,58,160.00
2010,07,02,07,59,160.70
2010,07,02,08,00,162.00
2010,07,02,08,01,162.00
2010,07,02,08,02,162.00
2010,07,02,08,03,162.00
2010,07,02,08,04,162.20
2010,07,02,08,05,163.80
2010,07,02,08,06,166.00
2010,07,02,08,07,170.30
2010,07,02,08,08,175.10
2010,07,02,08,09,179.00
2010,07,02,08,10,181.50
2010,07,02,08,11,183.80
2010,07,02,08,12,185.50
2010,07,02,08,13,187.40
2010,07,02,08,14,189.60
2010,07,02,08,15,192.00
2010,07,02,08,16,193.00
2010,07,02,08,17,193.00
2010,07,02,08,18,193.00
2010,07,02,08,19,192.30
2010,07,02,08,20,192.00
2010,07,02,08,21,192.10
2010,07,02,08,22,194.20
2010,07,02,08,23,199.10
2010,07,02,08,24,206.00
2010,07,02,08,25,204.00
2010,07,02,08,26,206.30
2010,07,02,08,27,217.30
2010,07,02,08,28,225.50
2010,07,02,08,29,235.70
2010,07,02,08,30,247.20
2010,07,02,08,31,250.20
2010,07,02,08,32,254.80
2010,07,02,08,33,263.30
2010,07,02,08,34,270.70
2010,07,02,08,35,278.50
2010,07,02,08,36,281.80
2010,07,02,08,37,285.40
2010,07,02,08,38,293.40
2010,07,02,08,39,293.50
2010,07,02,08,40,293.00
2010,07,02,08,41,300.50
2010,07,02,08,42,365.30
2010,07,02,08,43,397.00
2010,07,02,08,44,532.10
2010,07,02,08,45,496.50
2010,07,02,08,46,322.40
2010,07,02,08,47,315.50
2010,07,02,08,48,279.30
2010,07,02,08,49,258.60
2010,07,02,08,50,258.50
2010,07,02,08,51,260.00
2010,07,02,08,52,248.00
2010,07,02,08,53,248.00
2010,07,02,08,54,473.70
2010,07,02,08,55,584.10
2010,07,02,08,56,572.10
2010,07,02,08,57,561.90
2010,07,02,08,58,556.90
2010,07,02,08,59,552.90
2010,07,02,09,00,548.50
2010,07,02,09,01,552.80
2010,07,02,09,02,562.90
2010,07,02,09,03,579.50
2010,07,02,09,04,593.30
2010,07,02,09,05,602.40
2010,07,02,09,06,605.70
2010,07,02,09,07,605.10
2010,07,02,09,08,611.70
2010,07,02,09,09,605.10
2010,07,02,09,10,599.80
2010,07,02,09,11,593.70
2010,07,02,09,12,589.80
2010,07,02,09,13,582.40
2010,07,02,09,14,577.80
2010,07,02,09,15,577.30
2010,07,02,09,16,580.80
2010,07,02,09,17,588.30
2010,07,02,09,18,591.80
2010,07,02,09,19,593.70
2010,07,02,09,20,595.30
2010,07,02,09,21,609.40
2010,07,02,09,22,614.50
2010,07,02,09,23,626.10
2010,07,02,09,24,634.90
2010,07,02,09,25,640.20
2010,07,02,09,26,611.90
2010,07,02,09,27,559.60
2010,07,02,09,28,589.50
2010,07,02,09,29,618.60
2010,07,02,09,30,597.20
2010,07,02,09,31,606.60
2010,07,02,09,32,570.80
2010,07,02,09,33,633.00
2010,07,02,09,34,650.50
2010,07,02,09,35,671.70
2010,07,02,09,36,660.10
2010,07,02,09,37,659.70
2010,07,02,09,38,648.70
2010,07,02,09,39,642.70
2010,07,02,09,40,647.00
2010,07,02,09,41,645.60
2010,07,02,09,42,646.70
2010,07,02,09,43,650.30
2010,07,02,09,44,652.50
2010,07,02,09,45,654.90
2010,07,02,09,46,657.80
2010,07,02,09,47,662.00
2010,07,02,09,48,663.00
2010,07,02,09,49,663.20
2010,07,02,09,50,664.00
2010,07,02,09,51,662.60
2010,07,02,09,52,665.30
2010,07,02,09,53,670.30
2010,07,02,09,54,672.90
2010,07,02,09,55,677.50
2010,07,02,09,56,680.00
2010,07,02,09,57,681.80
2010,07,02,09,58,684.00
2010,07,02,09,59,687.80
2010,07,02,10,00,691.00
2010,07,02,10,01,694.40
2010,07,02,10,02,696.70
2010,07,02,10,03,699.50
2010,07,02,10,04,703.60
2010,07,02,10,05,708.90
2010,07,02,10,06,713.70
2010,07,02,10,07,716.00
2010,07,02,10,08,720.20
2010,07,02,10,09,724.10
2010,07,02,10,10,729.40
2010,07,02,10,11,734.30
2010,07,02,10,12,744.30
2010,07,02,10,13,748.30
2010,07,02,10,14,757.10
2010,07,02,10,15,769.20
2010,07,02,10,16,777.90
2010,07,02,10,17,792.40
2010,07,02,10,18,803.00
2010,07,02,10,19,814.50
2010,07,02,10,20,823.30
2010,07,02,10,21,829.80
2010,07,02,10,22,839.30
2010,07,02,10,23,854.20
2010,07,02,10,24,872.50
2010,07,02,10,25,888.00
2010,07,02,10,26,888.00
2010,07,02,10,27,914.20
2010,07,02,10,28,943.80
2010,07,02,10,29,878.80
2010,07,02,10,30,951.60
2010,07,02,10,31,921.00
2010,07,02,10,32,921.00
2010,07,02,10,33,610.10
2010,07,02,10,34,382.80
2010,07,02,10,35,381.00
2010,07,02,10,36,412.60
2010,07,02,10,37,555.00
2010,07,02,10,38,677.00
2010,07,02,10,39,803.80
2010,07,02,10,40,794.60
2010,07,02,10,41,791.00
2010,07,02,10,42,784.40
2010,07,02,10,43,780.10
2010,07,02,10,44,782.00
2010,07,02,10,45,785.90
2010,07,02,10,46,793.40
2010,07,02,10,47,797.90
2010,07,02,10,48,801.10
2010,07,02,10,49,805.80
2010,07,02,10,50,809.60
2010,07,02,10,51,814.70
2010,07,02,10,52,818.50
2010,07,02,10,53,821.20
2010,07,02,10,54,826.20
2010,07,02,10,55,836.50
2010,07,02,10,56,844.10
2010,07,02,10,57,844.70
2010,07,02,10,58,844.00
2010,07,02,10,59,840.80
2010,07,02,11,00,844.50
2010,07,02,11,01,847.20
2010,07,02,11,02,850.10
2010,07,02,11,03,853.10
2010,07,02,11,04,865.60
2010,07,02,11,05,884.20
2010,07,02,11,06,904.70
2010,07,02,11,07,930.10
2010,07,02,11,08,949.90
2010,07,02,11,09,961.20
2010,07,02,11,10,970.80
2010,07,02,11,11,978.20
2010,07,02,11,12,984.00
2010,07,02,11,13,984.00
2010,07,02,11,14,983.40
2010,07,02,11,15,996.80
2010,07,02,11,16,1015.00
2010,07,02,11,17,1034.90
2010,07,02,11,18,1042.50
2010,07,02,11,19,1049.00
2010,07,02,11,20,955.90
2010,07,02,11,21,896.00
2010,07,02,11,22,873.00
2010,07,02,11,23,364.40
2010,07,02,11,24,375.00
2010,07,02,11,25,418.00
2010,07,02,11,26,418.00
2010,07,02,11,27,321.00
2010,07,02,11,28,288.30
2010,07,02,11,29,282.10
2010,07,02,11,30,277.90
2010,07,02,11,31,277.00
2010,07,02,11,32,280.10
2010,07,02,11,33,287.00
2010,07,02,11,34,290.10
2010,07,02,11,35,292.00
2010,07,02,11,36,292.80
2010,07,02,11,37,294.50
2010,07,02,11,38,297.80
2010,07,02,11,39,301.50
2010,07,02,11,40,305.80
2010,07,02,11,41,305.50
2010,07,02,11,42,303.20
2010,07,02,11,43,300.30
2010,07,02,11,44,297.50
2010,07,02,11,45,297.00
2010,07,02,11,46,297.30
2010,07,02,11,47,299.00
2010,07,02,11,48,300.20
2010,07,02,11,49,304.30
2010,07,02,11,50,308.20
2010,07,02,11,51,312.70
2010,07,02,11,52,318.90
2010,07,02,11,53,324.10
2010,07,02,11,54,329.30
2010,07,02,11,55,336.30
2010,07,02,11,56,344.30
2010,07,02,11,57,349.60
2010,07,02,11,58,354.10
2010,07,02,11,59,360.70
2010,07,02,12,00,368.30
2010,07,02,12,01,378.00
2010,07,02,12,02,391.20
2010,07,02,12,03,404.10
2010,07,02,12,04,440.20
2010,07,02,12,05,487.00
2010,07,02,12,06,430.00
2010,07,02,12,07,399.20
2010,07,02,12,08,396.20
2010,07,02,12,09,394.20
2010,07,02,12,10,394.00
2010,07,02,12,11,394.00
2010,07,02,12,12,395.00
2010,07,02,12,13,396.60
2010,07,02,12,14,400.10
2010,07,02,12,15,404.00
2010,07,02,12,16,406.00
2010,07,02,12,17,405.20
2010,07,02,12,18,404.00
2010,07,02,12,19,404.00
2010,07,02,12,20,403.20
2010,07,02,12,21,403.00
2010,07,02,12,22,402.50
2010,07,02,12,23,399.40
2010,07,02,12,24,396.40
2010,07,02,12,25,396.00
2010,07,02,12,26,396.80
2010,07,02,12,27,399.70
2010,07,02,12,28,406.30
2010,07,02,12,29,416.30
2010,07,02,12,30,422.30
2010,07,02,12,31,421.10
2010,07,02,12,32,415.70
2010,07,02,12,33,404.30
2010,07,02,12,34,393.30
2010,07,02,12,35,383.70
2010,07,02,12,36,377.60
2010,07,02,12,37,376.00
2010,07,02,12,38,379.80
2010,07,02,12,39,389.90
2010,07,02,12,40,401.30
2010,07,02,12,41,409.30
2010,07,02,12,42,414.30
2010,07,02,12,43,415.00
2010,07,02,12,44,417.70
2010,07,02,12,45,417.60
2010,07,02,12,46,423.10
2010,07,02,12,47,436.00
2010,07,02,12,48,455.40
2010,07,02,12,49,483.10
2010,07,02,12,50,524.40
2010,07,02,12,51,570.50
2010,07,02,12,52,705.10
2010,07,02,12,53,649.30
2010,07,02,12,54,624.00
2010,07,02,12,55,635.10
2010,07,02,12,56,600.00
2010,07,02,12,57,579.00
2010,07,02,12,58,605.00
2010,07,02,12,59,608.00
2010,07,02,13,00,608.00
2010,07,02,13,01,608.00
2010,07,02,13,02,561.00
2010,07,02,13,03,562.20
2010,07,02,13,04,559.70
2010,07,02,13,05,559.10
2010,07,02,13,06,573.00
2010,07,02,13,07,769.00
2010,07,02,13,08,773.10
2010,07,02,13,09,583.30
2010,07,02,13,10,570.30
2010,07,02,13,11,631.90
2010,07,02,13,12,668.00
2010,07,02,13,13,562.30
2010,07,02,13,14,555.80
2010,07,02,13,15,580.00
2010,07,02,13,16,596.00
2010,07,02,13,17,596.00
2010,07,02,13,18,1011.40
2010,07,02,13,19,1158.00
2010,07,02,13,20,1158.00
2010,07,02,13,21,949.70
2010,07,02,13,22,525.70
2010,07,02,13,23,512.60
2010,07,02,13,24,510.00
2010,07,02,13,25,531.00
2010,07,02,13,26,533.00
2010,07,02,13,27,828.30
2010,07,02,13,28,1382.50
2010,07,02,13,29,1383.00
2010,07,02,13,30,1383.00
2010,07,02,13,31,1383.00
2010,07,02,13,32,1383.00
2010,07,02,13,33,1383.00
2010,07,02,13,34,1248.30
2010,07,02,13,35,1202.70
2010,07,02,13,36,1236.00
2010,07,02,13,37,1236.00
2010,07,02,13,38,1236.00
2010,07,02,13,39,1026.20
2010,07,02,13,40,659.00
2010,07,02,13,41,659.00
2010,07,02,13,42,659.00
2010,07,02,13,43,659.00
2010,07,02,13,44,614.10
2010,07,02,13,45,487.00
2010,07,02,13,46,487.00
2010,07,02,13,47,863.00
2010,07,02,13,48,996.60
2010,07,02,13,49,1050.80
2010,07,02,13,50,1078.00
2010,07,02,13,51,1070.10
2010,07,02,13,52,1070.10
2010,07,02,13,53,1071.00
2010,07,02,13,54,891.90
2010,07,02,13,55,894.80
2010,07,02,13,56,1022.70
2010,07,02,13,57,985.50
2010,07,02,13,58,998.00
2010,07,02,13,59,998.00
2010,07,02,14,00,998.00
2010,07,02,14,01,998.00
2010,07,02,14,02,998.00
2010,07,02,14,03,998.00
2010,07,02,14,04,998.00
2010,07,02,14,05,957.30
2010,07,02,14,06,935.90
2010,07,02,14,07,933.40
2010,07,02,14,08,934.00
2010,07,02,14,09,932.00
2010,07,02,14,10,930.70
2010,07,02,14,11,930.00
2010,07,02,14,12,931.50
2010,07,02,14,13,927.30
2010,07,02,14,14,926.10
2010,07,02,14,15,927.00
2010,07,02,14,16,922.50
2010,07,02,14,17,916.90
2010,07,02,14,18,917.70
2010,07,02,14,19,914.70
2010,07,02,14,20,910.30
2010,07,02,14,21,909.00
2010,07,02,14,22,909.00
2010,07,02,14,23,910.60
2010,07,02,14,24,910.80
2010,07,02,14,25,910.30
2010,07,02,14,26,910.50
2010,07,02,14,27,916.90
2010,07,02,14,28,918.60
2010,07,02,14,29,967.80
2010,07,02,14,30,976.00
2010,07,02,14,31,954.70
2010,07,02,14,32,872.90
2010,07,02,14,33,870.30
2010,07,02,14,34,947.70
2010,07,02,14,35,962.00
2010,07,02,14,36,962.00
2010,07,02,14,37,962.00
2010,07,02,14,38,948.70
2010,07,02,14,39,924.50
2010,07,02,14,40,913.80
2010,07,02,14,41,907.80
2010,07,02,14,42,910.90
2010,07,02,14,43,919.00
2010,07,02,14,44,920.00
2010,07,02,14,45,920.30
2010,07,02,14,46,919.40
2010,07,02,14,47,919.20
2010,07,02,14,48,921.90
2010,07,02,14,49,926.10
2010,07,02,14,50,929.90
2010,07,02,14,51,933.90
2010,07,02,14,52,936.60
2010,07,02,14,53,936.80
2010,07,02,14,54,933.70
2010,07,02,14,55,928.00
2010,07,02,14,56,917.90
2010,07,02,14,57,902.70
2010,07,02,14,58,893.70
2010,07,02,14,59,885.90
2010,07,02,15,00,879.20
2010,07,02,15,01,872.40
2010,07,02,15,02,868.30
2010,07,02,15,03,861.90
2010,07,02,15,04,860.80
2010,07,02,15,05,862.70
2010,07,02,15,06,861.00
2010,07,02,15,07,858.90
2010,07,02,15,08,854.90
2010,07,02,15,09,850.50
2010,07,02,15,10,849.00
2010,07,02,15,11,846.00
2010,07,02,15,12,845.40
2010,07,02,15,13,844.00
2010,07,02,15,14,841.70
2010,07,02,15,15,840.00
2010,07,02,15,16,837.40
2010,07,02,15,17,836.30
2010,07,02,15,18,833.00
2010,07,02,15,19,832.10
2010,07,02,15,20,830.40
2010,07,02,15,21,830.00
2010,07,02,15,22,829.90
2010,07,02,15,23,828.40
2010,07,02,15,24,830.00
2010,07,02,15,25,830.00
2010,07,02,15,26,830.00
2010,07,02,15,27,828.40
2010,07,02,15,28,826.20
2010,07,02,15,29,825.60
2010,07,02,15,30,823.70
2010,07,02,15,31,823.00
2010,07,02,15,32,803.40
2010,07,02,15,33,806.50
2010,07,02,15,34,814.90
2010,07,02,15,35,806.00
2010,07,02,15,36,802.60
2010,07,02,15,37,801.00
2010,07,02,15,38,798.70
2010,07,02,15,39,796.30
2010,07,02,15,40,795.90
2010,07,02,15,41,795.00
2010,07,02,15,42,793.40
2010,07,02,15,43,791.00
2010,07,02,15,44,788.80
2010,07,02,15,45,786.30
2010,07,02,15,46,783.50
2010,07,02,15,47,779.70
2010,07,02,15,48,778.20
2010,07,02,15,49,777.00
2010,07,02,15,50,773.50
2010,07,02,15,51,770.30
2010,07,02,15,52,767.50
2010,07,02,15,53,764.40
2010,07,02,15,54,761.30
2010,07,02,15,55,760.20
2010,07,02,15,56,758.80
2010,07,02,15,57,757.80
2010,07,02,15,58,754.00
2010,07,02,15,59,753.10
2010,07,02,16,00,750.10
2010,07,02,16,01,747.80
2010,07,02,16,02,747.00
2010,07,02,16,03,744.20
2010,07,02,16,04,741.60
2010,07,02,16,05,739.30
2010,07,02,16,06,737.50
2010,07,02,16,07,734.50
2010,07,02,16,08,734.60
2010,07,02,16,09,731.20
2010,07,02,16,10,728.80
2010,07,02,16,11,725.90
2010,07,02,16,12,723.00
2010,07,02,16,13,722.10
2010,07,02,16,14,721.00
2010,07,02,16,15,717.00
2010,07,02,16,16,715.00
2010,07,02,16,17,713.80
2010,07,02,16,18,710.90
2010,07,02,16,19,708.00
2010,07,02,16,20,707.00
2010,07,02,16,21,704.80
2010,07,02,16,22,702.50
2010,07,02,16,23,699.80
2010,07,02,16,24,698.00
2010,07,02,16,25,696.60
2010,07,02,16,26,694.30
2010,07,02,16,27,692.50
2010,07,02,16,28,689.00
2010,07,02,16,29,687.70
2010,07,02,16,30,684.90
2010,07,02,16,31,682.60
2010,07,02,16,32,680.30
2010,07,02,16,33,679.50
2010,07,02,16,34,677.00
2010,07,02,16,35,675.30
2010,07,02,16,36,671.80
2010,07,02,16,37,670.20
2010,07,02,16,38,668.20
2010,07,02,16,39,665.50
2010,07,02,16,40,663.00
2010,07,02,16,41,661.20
2010,07,02,16,42,657.80
2010,07,02,16,43,656.20
2010,07,02,16,44,654.00
2010,07,02,16,45,649.80
2010,07,02,16,46,649.00
2010,07,02,16,47,647.10
2010,07,02,16,48,643.80
2010,07,02,16,49,642.20
2010,07,02,16,50,638.30
2010,07,02,16,51,635.80
2010,07,02,16,52,635.00
2010,07,02,16,53,632.90
2010,07,02,16,54,629.70
2010,07,02,16,55,628.20
2010,07,02,16,56,624.70
2010,07,02,16,57,612.00
2010,07,02,16,58,620.20
2010,07,02,16,59,618.00
2010,07,02,17,00,615.70
2010,07,02,17,01,613.30
2010,07,02,17,02,611.70
2010,07,02,17,03,607.50
2010,07,02,17,04,605.60
2010,07,02,17,05,603.90
2010,07,02,17,06,600.20
2010,07,02,17,07,598.10